Regional Weather Roundup
Issued by NWS

Home | Current Version | Previous Version | Text Only | Print | Product List | Glossary Off
Versions: 1 2 3 4 5 6 7 8 9 10 11 12 13 14 15 16 17 18 19 20 21 22 23 24 25 26 27 28 29 30 31 32 33 34 35 36 37 38 39 40 41 42 43 44 45 46 47 48 49 50

000
ASUS43 KDTX 230610
RWRMI
MICHIGAN HOURLY REGIONAL WEATHER ROUNDUP
NATIONAL WEATHER SERVICE DETROIT/PONTIAC MI
200 AM EDT SAT MAY 23 2015

NOTE: "FAIR" INDICATES FEW OR NO CLOUDS BELOW 12,000 FEET WITH NO
SIGNIFICANT WEATHER AND/OR OBSTRUCTION TO VISIBILITY.

MIZ047>049-052>055-059>063-066>070-074>076-081>083-230700-
SOUTHEAST LOWER MICHIGAN

CITY           SKY/WX    TMP DP  RH WIND       PRES   REMARKS
ADRIAN         MOCLDY    49  39  68 E10       30.33S
6HR MIN TEMP:  49; 6HR MAX TEMP:  66;

ALMA           CLEAR     38  35  88 CALM      30.32F
ANN ARBOR      PTCLDY    44  27  51 E3        30.34S
BAD AXE        CLEAR     34  24  66 S3        30.35R
CARO           CLEAR     32  29  90 CALM      30.33F
DETROIT CITY   PTCLDY    45  26  47 CALM      30.35F
6HR MIN TEMP:  44; 6HR MAX TEMP:  57;

DETROIT        CLOUDY    46  28  49 CALM      30.35S
6HR MIN TEMP:  46; 6HR MAX TEMP:  65;

FLINT          PTCLDY    40  27  59 CALM      30.33F
6HR MIN TEMP:  39; 6HR MAX TEMP:  64;

GROSSE ILE     PTCLDY    46  34  61 NE5       30.33S
HILLSDALE      MOCLDY    48  35  60 NE3       30.31S
6HR MIN TEMP:  48; 6HR MAX TEMP:  65;

HOWELL         CLEAR     42  29  61 SE5       30.32F
6HR MIN TEMP:  42; 6HR MAX TEMP:  63;


CITY           SKY/WX    TMP DP  RH WIND       PRES   REMARKS
JACKSON        MOCLDY    46  35  65 E5        30.32S
6HR MIN TEMP:  45; 6HR MAX TEMP:  63;

LAMBERTVILLE   MOCLDY    50  41  71 NE6       30.33S
LANSING        PTCLDY    47  34  60 SE5       30.32S
6HR MIN TEMP:  44; 6HR MAX TEMP:  63;

LAPEER         FAIR      32  29  90 CALM      30.33F
MASON          PTCLDY    42  34  74 SE5       30.31F
MONROE         MOCLDY    46  34  61 NE5       30.32F
MT. CLEMENS    PTCLDY    39  30  71 N3        30.31F
6HR MIN TEMP:  38; 6HR MAX TEMP:  52;

PONTIAC        PTCLDY    38  27  64 CALM      30.32F
6HR MIN TEMP:  38; 6HR MAX TEMP:  63;

PORT HOPE        N/A     39  24  55 SW7       30.31R WCI  34
6HR MIN TEMP:  38; 6HR MAX TEMP:  46;

PORT HURON     CLEAR     30  30 100 CALM      30.35S
TRI CITIES     CLEAR     45  31  58 CALM      30.34S
6HR MIN TEMP:  44; 6HR MAX TEMP:  59;

MIDLAND        FAIR      36  35  94 CALM      30.32S
TROY           PTCLDY    44  24  46 CALM      30.35F
SAGINAW HB     CLEAR     37  27  65 S6        30.33R WCI  33
$$
MIZ043>046-050>051-056>058-064>065-071>073-077>080-230700-
SOUTHWEST LOWER MICHIGAN

CITY           SKY/WX    TMP DP  RH WIND       PRES   REMARKS
BATTLE CREEK   MOCLDY    51  32  48 E6        30.31F
6HR MIN TEMP:  46; 6HR MAX TEMP:  62;

BENTON HARBOR  CLOUDY    47  35  63 SE5       30.30R
6HR MIN TEMP:  42; 6HR MAX TEMP:  56;

BIG RAPIDS     CLEAR     38  32  79 CALM      30.29F
6HR MIN TEMP:  37; 6HR MAX TEMP:  59;

COLDWATER      MOCLDY    43  37  78 CALM      30.31S
6HR MIN TEMP:  43; 6HR MAX TEMP:  62;

FREMONT        FAIR      44  31  60 E3        30.28F
6HR MIN TEMP:  40; 6HR MAX TEMP:  59;

HOLLAND        MOCLDY    44  37  76 E5        30.30S
6HR MIN TEMP:  43; 6HR MAX TEMP:  60;

GRAND RAPIDS   PTCLDY    43  36  76 SE3       30.30F
6HR MIN TEMP:  43; 6HR MAX TEMP:  62;

IONIA          FAIR      42  34  72 NE3       30.30S
KALAMAZOO      MOCLDY    45  34  65 CALM      30.31S
6HR MIN TEMP:  44; 6HR MAX TEMP:  61;

LUDINGTON      CLEAR     38  33  82 CALM      30.29S
6HR MIN TEMP:  38; 6HR MAX TEMP:  56;

MARSHALL       MOCLDY    46  35  65 CALM      30.31S
MOUNT PLEASANT CLEAR     38  36  90 CALM      30.31S
6HR MIN TEMP:  37; 6HR MAX TEMP:  60;

MUSKEGON       PTCLDY    44  35  70 SE5       30.29F
6HR MIN TEMP:  42; 6HR MAX TEMP:  58;

SOUTH HAVEN    CLOUDY    42  38  87 CALM      30.30S
$$
MIZ016>042-230700-
NORTHERN LOWER MICHIGAN

CITY           SKY/WX    TMP DP  RH WIND       PRES   REMARKS
ALPENA         CLEAR     32  28  85 CALM      30.30S
6HR MIN TEMP:  29; 6HR MAX TEMP:  53;

BEAVER ISLAND  CLEAR     35  26  70 CALM      30.28S
6HR MIN TEMP:  33; 6HR MAX TEMP:  51;

BELLAIRE       CLEAR     32  30  93 CALM      30.30F
6HR MIN TEMP:  32; 6HR MAX TEMP:  55;

CADILLAC       CLEAR     35  29  80 CALM      30.30S
CHARLEVOIX     CLEAR     41  32  69 E3        30.31F
FRANKFORT      CLEAR     38  30  71 CALM      30.28F
GAYLORD        CLEAR     34  27  75 CALM      30.29R
6HR MIN TEMP:  34; 6HR MAX TEMP:  53;

GRAYLING       CLEAR     28  25  86 CALM      30.31S
HARBOR SPRINGS CLEAR     35  28  76 CALM      30.29S
HOUGHTON LAKE  CLEAR     33  30  88 CALM      30.31S
6HR MIN TEMP:  33; 6HR MAX TEMP:  55;

MANISTEE       CLEAR     36  30  80 CALM      30.29F
OSCODA         CLEAR     31  26  81 SW3       30.31S
PELLSTON       CLEAR     28  25  88 CALM      30.29S
6HR MIN TEMP:  28; 6HR MAX TEMP:  54;

ROGERS CITY    CLEAR     32  29  88 SW3       30.30S
TRAVERSE CITY  CLEAR     39  29  67 CALM      30.29S
6HR MIN TEMP:  38; 6HR MAX TEMP:  54;

$$
MIZ007>008-015-230700-
EASTERN UPPER MICHIGAN

CITY           SKY/WX    TMP DP  RH WIND       PRES   REMARKS
KINROSS        CLEAR     30  25  80 CALM      30.26S
6HR MIN TEMP:  30; 6HR MAX TEMP:  46;

MACKINAC ISLAN CLEAR     37  31  78 SW6       30.27S WCI  33
6HR MIN TEMP:  37; 6HR MAX TEMP:  48;

NEWBERRY       CLEAR     39  28  65 SW9       30.24F WCI  33
6HR MIN TEMP:  33; 6HR MAX TEMP:  51;

S. S. MARIE    CLEAR     32  25  75 CALM      30.25F
6HR MIN TEMP:  31; 6HR MAX TEMP:  44;

MUNISING         N/A     48  24  39 S13       30.22F
6HR MIN TEMP:  41; 6HR MAX TEMP:  50;

$$
MIZ004>006-011>014-085-230700-
CENTRAL UPPER MICHIGAN

CITY           SKY/WX    TMP DP  RH WIND       PRES   REMARKS
MANISTIQUE     CLEAR     41  31  68 SW6       30.26S
6HR MIN TEMP:  32; 6HR MAX TEMP:  47;

ESCANABA       CLEAR     43  25  49 SW3       30.26S
6HR MIN TEMP:  36; 6HR MAX TEMP:  52;

MENOMINEE      CLEAR     45  28  53 SE3       30.26S
6HR MIN TEMP:  45; 6HR MAX TEMP:  54;

SAWYER-GWINN   CLEAR     40  28  61 S7        30.24S
$$
MIZ001>003-009>011-084-230700-
WESTERN UPPER MICHIGAN

CITY           SKY/WX    TMP DP  RH WIND       PRES   REMARKS
IRON MOUNTAIN  CLEAR     38  32  79 CALM      30.24S
6HR MIN TEMP:  38; 6HR MAX TEMP:  63;

HOUGHTON       CLEAR     48  28  46 SW10      30.16F
6HR MIN TEMP:  38; 6HR MAX TEMP:  50;

COPPER HARBOR    N/A     45  28  51 SW14      30.13F
6HR MIN TEMP:  41; 6HR MAX TEMP:  47;

IRONWOOD       CLEAR     57  28  33 S6        30.16S
6HR MIN TEMP:  50; 6HR MAX TEMP:  66;

$$

ABBREVIATIONS USED IN REMARKS
   TC - TEMPERATURE IN CELSIUS
  WCI - WIND CHILL INDEX
   HX - HEAT INDEX
  VSB - VISIBILITY




USA.gov is the U.S. government's official web portal to all federal, state and local government web resources and services.